SCP
0 0 0 0 0 0 0 0 0 0 0 0 0 0 0 0 0 0 0 0 0 0 0 0 0 0 0 0 0 0 0 0 0 0 0 0 0 0 0 0 0 0 0
0 0 0 0 0 0 0 0 0 0 0 0 0 0 0 0 0 0 0 0 0 0 0 0 0 0 0 0 0 0 0 0 0 0 0 0 0 0 0 0 0 0 0
0 0 0 0 0 0 0 0 0 0 0 0 0 0 0 0 0 0 0 0 0 0 0 0 0 0 0 0 0 0 0 0 0 0 0 0 0 0 0 0 0 0 0
0 0 0 0 0 0 0 0 0 0 0 0 0 0 0 0 0 0 0 0 0 0 0 0 0 0 0 0 0 0 0 0 0 0 0 0 0 0 0 0 0 0 0
0 0 0 0 0 0 0 0 0 0 0 0 0 0 0 0 0 0 0 0 0 0 0 0 0 0 0 0 0 0 0 0 0 0 0 0 0 0 0 0 0 0 0
0 0 0 0 0 0 0 0 0 0 0 0 0 0 0 0 0 0 0 0 0 0 0 0 0 0 0 0 0 0 0 0 0 0 0 0 0 0 0 0 0 0 0
0 0 0 0 0 0 0 0 0 0 0 0 0 0 0 0 0 0 0 0 0 0 0 0 0 0 0 0 0 0 0 0 0 0 0 0 0 0 0 0 0 0 0
0 0 0 0 0 0 0 0 0 0 0 0 0 0 0 0 0 0 0 0 0 0 0 0 0 0 0 0 0 0 0 0 0 0 0 0 0 0 0 0 0 0 0
0 0 0 0 0 0 0 0 0 0 0 0 0 0 0 0 0 0 0 0 0 0 0 0 0 0 0 0 0 0 0 0 0 0 0 0 0 0 0 0 0 0 0
0 0 0 0 0 0 0 0 0 0 0 0 0 0 0 0 0 0 0 0 0 0 0 0 0 0 0 0 0 0 0 0 0 0 0 0 0 0 0 0 0 0 0
0 0 0 0 0 0 0 0 0 0 0 0 0 0 0 0 0 0 0 0 0 0 0 0 0 0 0 0 0 0 0 0 0 0 0 0 0 0 0 0 0 0 0
0 0 0 0 0 0 0 0 0 0 0 0 0 0 0 0 0 0 0 0 0 0 0 0 0 0 0 0 0 0 0 0 0 0 0 0 0 0 0 0 0 0 0
0 0 0 0 0 0 0 0 0 0 0 0 0 0 0 0 0 0 0 0 0 0 0 0 0 0 0 0 0 0 0 0 0 0 0 0 0 0 0 0 0 0 0
0 0 0 0 0 0 0 0 0 0 0 0 0 0 0 0 0 0 0 0 0 0 0 0 0 0 0 0 0 0 0 0 0 0 0 0 0 0 0 0 0 0 0
0 0 0 0 0 0 0 0 0 0 0 0 0 0 0 0 0 0 0 0 0 0 0 0 0 0 0 0 0 0 0 0 0 0 0 0 0 0 0 0 0 0 0
0 0 0 0 0 0 0 0 0 0 0 0 0 0 0 0 0 0 0 0 0 0 0 0 0 0 0 0 0 0 0 0 0 0 0 0 0 0 0 0 0 0 0
0 0 0 0 0 0 0 0 0 0 0 0 0 0 0 0 0 0 0 0 0 0 0 0 0 0 0 0 0 0 0 0 0 0 0 0 0 0 0 0 0 0 0
0 0 0 0 0 0 0 0 0 0 0 0 0 0 0 0 0 0 0 0 0 0 0 0 0 0 0 0 0 0 0 0 0 0 0 0 0 0 0 0 0 0 0
0 0 0 0 0 0 0 0 0 0 0 0 0 0 0 0 0 0 0 0 0 0 0 0 0 0 0 0 0 0 0 0 0 0 0 0 0 0 0 0 0 0 0
0 0 0 0 0 0 0 0 0 0 0 0 0 0 0 0 0 0 0 0 0 0 0 0 0 0 0 0 0 0 0 0 0 0 0 0 0 0 0 0 0 0 0
0 0 0 0 0 0 0 0 0 0 0 0 0 0 0 0 0 0 0 0 0 0 0 0 0 0 0 0 0 0 0 0 0 0 0 0 0 0 0 0 0 0 0
0 0 0 0 0 0 0 0 0 0 0 0 0 0 0 0 0 0 0 0 0 0 0 0 0 0 0 0 0 0 0 0 0 0 0 0 0 0 0 0 0 0 0
0 0 0 0 0 0 0 0 0 0 0 0 0 0 0 0 0 0 0 0 0 0 0 0 0 0 0 0 0 0 0 0 0 0 0 0 0 0 0 0 0 0 0
0 0 0 0 0 0 0 0 0 0 0 0 0 0 0 0 0 0 0 0 0 0 0 0 0 0 0 0 0 0 0 0 0 0 0 0 0 0 0 0 0 0 0
0 0 0 0 0 0 0 0 0 0 0 0 0 0 0 0 0 0 0 0 0 0 0 0 0 0 0 0 0 0 0 0 0 0 0 0 0 0 0 0 0 0 0
0 0 0 0 0 0 0 0 0 0 0 0 0 0 0 0 0 0 0 0 0 0 0 0 0 0 0 0 0 0 0 0 0 0 0 0 0 0 0 0 0 0 0
Wind_Speed
8 7 6 5 5 4 5 5 6 5 5 5 5 6 6 6 6 7 9 9 9 9 8 8 8 7 7 7 7 5 6 7 6 4 4 4 5 5 4 4 5 6 7
8 8 7 6 6 6 5 5 5 4 4 5 5 5 6 6 6 5 8 9 9 9 9 8 7 7 7 8 8 6 4 5 7 4 3 3 3 5 3 4 5 5 5
12 10 8 7 7 6 5 5 5 6 7 8 8 8 6 5 5 6 6 7 8 9 8 8 7 7 7 7 7 7 7 5 5 6 5 4 3 4 3 4 4 6 5
12 11 9 8 8 6 6 6 6 7 8 8 7 8 7 6 5 5 5 7 8 8 8 8 8 7 6 7 7 7 6 5 4 4 4 3 1 2 4 4 4 7 6
12 12 10 9 8 7 6 6 6 7 7 6 7 9 9 8 7 6 8 7 6 7 7 7 7 7 6 7 7 7 7 5 4 4 3 3 3 4 1 5 5 5 4
11 11 9 9 8 7 6 6 7 6 6 8 8 10 12 11 10 8 7 5 4 5 6 7 6 6 5 6 6 6 6 5 5 4 3 3 2 3 2 3 5 5 4
12 12 12 11 10 9 8 7 8 7 7 8 9 9 10 10 10 9 8 7 4 4 5 6 5 5 5 5 5 5 5 5 5 4 3 3 2 2 2 3 4 4 5
12 12 12 11 11 10 9 9 9 8 8 8 9 8 9 7 6 7 7 6 5 5 5 6 5 5 5 5 5 4 4 4 4 4 3 2 2 2 2 2 3 5 4
13 13 12 11 11 11 9 10 10 9 8 9 9 8 8 7 8 8 7 6 5 5 6 6 6 5 5 4 4 3 3 3 2 2 3 2 2 2 2 2 2 3 5
13 13 13 12 11 10 8 9 9 9 9 8 7 7 7 8 8 7 8 7 6 6 6 6 5 5 4 4 4 3 3 3 2 2 2 2 2 2 2 3 3 3 4
16 15 13 12 11 10 9 9 9 9 9 8 8 8 7 8 8 7 7 7 6 6 6 6 5 5 4 3 3 2 2 1 1 2 2 3 3 3 3 3 3 3 3
14 13 13 13 12 12 11 10 10 9 9 8 8 8 8 8 7 7 7 7 7 6 6 6 5 4 4 3 2 1 1 1 2 2 3 4 3 4 3 3 4 4 4
14 14 14 14 14 14 12 11 11 10 9 9 9 8 8 8 8 8 8 7 7 7 6 6 5 4 4 3 2 2 2 2 3 3 4 4 4 5 4 4 4 4 6
16 16 16 15 15 14 13 13 11 11 10 10 10 10 9 9 8 8 8 8 7 7 7 6 5 5 4 4 3 3 3 3 4 4 5 5 5 5 5 5 5 5 6
16 18 17 16 15 15 14 14 13 13 12 11 11 10 9 8 8 8 8 7 7 7 7 6 5 5 4 4 5 4 4 4 4 5 5 6 8 10 8 7 6 6 6
18 18 16 15 17 17 16 15 14 13 12 12 12 10 10 9 9 9 8 8 7 6 6 6 6 6 5 9 11 7 4 4 5 6 6 6 6 10 14 15 15 13 9
18 18 17 17 16 16 15 16 14 12 13 12 10 10 10 10 10 9 9 9 8 7 7 7 7 7 9 13 12 12 6 5 6 6 7 7 5 5 6 11 15 14 17
15 14 13 13 11 11 12 11 10 12 12 11 10 10 10 10 9 9 9 9 7 7 7 8 8 7 9 14 13 12 7 5 7 8 8 8 7 7 8 8 9 10 11
11 11 11 10 11 11 12 11 11 11 12 12 12 11 11 11 10 10 10 8 7 7 8 6 7 8 9 13 13 12 4 6 8 8 8 8 7 12 15 10 8 11 11
8 9 9 9 11 11 12 12 11 12 13 13 12 11 10 11 11 11 9 7 7 7 7 7 7 8 7 12 14 13 4 6 7 7 8 10 12 14 15 9 7 10 11
8 9 11 10 10 11 12 12 11 13 11 9 9 9 10 10 10 8 6 6 6 6 6 6 6 6 7 11 15 15 7 6 6 6 6 7 13 15 15 13 7 12 13
8 9 9 8 8 10 12 12 11 10 8 9 9 9 9 8 7 8 7 6 7 7 6 6 6 6 6 10 13 17 16 13 7 7 6 7 14 15 15 10 12 17 12
9 7 9 9 8 8 10 12 9 8 9 9 8 7 7 6 7 8 8 6 6 6 6 6 7 7 6 8 16 16 17 18 10 7 13 15 17 13 8 10 14 9 3
7 7 9 9 7 7 7 7 7 9 9 9 8 7 7 6 6 5 6 7 8 8 7 7 7 6 5 5 6 6 7 11 11 8 9 13 14 10 8 5 6 4 4
6 7 8 8 8 7 7 5 7 8 8 7 7 6 6 6 6 6 6 7 6 7 7 6 5 5 5 8 12 7 6 6 7 6 3 3 2 3 3 3 4 4 4
6 6 6 7 6 6 6 5 6 8 8 6 6 6 5 5 5 5 4 10 10 12 14 12 9 6 9 11 14 15 16 16 16 9 4 4 4 5 4 4 4 4 4
Wind_Direction
132 135 138 142 134 130 130 129 127 129 124 114 103 94 83 74 64 59 58 58 59 61 67 70 64 59 59 50 39 46 46 25 2 19 29 60 82 68 75 65 55 37 23
146 153 154 157 152 145 142 135 134 124 97 91 93 95 101 87 78 67 62 59 59 61 70 68 67 63 61 51 41 38 48 39 25 29 37 14 0 18 42 61 57 34 15
163 162 165 160 148 144 140 134 126 113 108 108 109 111 100 91 74 66 65 59 62 63 66 66 67 63 64 60 47 39 49 49 25 34 56 65 356 322 338 26 44 22 4
158 160 163 157 147 137 130 126 124 122 126 132 136 133 124 119 109 101 86 69 61 64 65 66 66 65 61 59 51 44 44 55 38 17 26 62 55 16 322 322 11 7 348
158 159 161 152 141 139 137 130 127 130 137 133 123 118 116 116 116 111 99 85 69 65 66 67 68 67 63 61 56 48 44 46 52 40 14 3 10 41 325 305 326 330 320
155 151 145 139 138 138 136 135 131 125 121 119 120 128 131 133 131 126 118 107 94 80 74 74 70 70 69 66 61 57 52 47 48 44 38 33 16 4 348 307 312 310 301
158 155 153 156 154 154 152 145 141 138 133 128 127 134 136 136 136 136 131 127 116 102 92 89 83 78 77 76 74 68 58 50 51 47 33 22 15 3 338 305 303 307 293
165 164 166 165 161 159 158 155 151 147 141 136 135 136 135 132 132 132 132 128 125 123 115 104 98 90 82 80 79 76 66 53 48 42 32 7 350 356 342 317 315 313 301
170 168 168 165 161 161 163 159 153 149 145 141 138 137 133 129 130 127 121 119 125 129 125 122 116 108 97 90 94 89 73 52 49 35 14 0 343 340 320 306 296 292 303
174 171 170 165 161 161 159 153 153 152 148 144 144 138 132 130 130 127 130 133 135 134 135 131 126 123 116 103 100 99 80 57 30 16 358 340 322 311 304 298 291 272 266
181 176 170 163 158 158 161 157 158 153 152 150 144 138 137 136 133 135 140 141 143 146 145 142 136 131 124 112 102 101 85 55 348 325 320 305 299 296 299 298 287 276 272
179 174 167 163 164 167 170 168 164 160 159 152 146 145 144 142 144 149 149 147 149 151 148 144 141 142 140 136 133 139 155 238 276 285 289 286 292 290 287 285 283 280 273
176 173 171 174 176 176 176 174 170 165 160 155 153 154 156 157 160 159 155 154 155 154 151 152 158 161 162 165 175 196 222 237 251 260 265 271 278 279 276 281 280 279 286
180 181 182 183 182 180 179 177 175 168 165 162 163 167 170 169 168 162 160 162 163 162 165 168 170 172 175 185 199 212 226 241 252 254 255 258 259 267 274 280 277 283 285
186 188 189 186 182 180 180 180 178 173 171 170 174 177 172 167 165 165 166 168 170 172 170 171 177 180 187 200 205 213 226 242 257 259 256 256 261 267 273 275 267 271 275
193 194 190 185 184 184 181 180 180 174 171 176 182 174 169 169 171 170 168 170 175 175 172 181 184 195 206 219 223 221 228 246 257 266 265 264 262 272 279 285 287 284 282
194 194 192 190 187 184 179 180 177 167 171 178 177 173 171 174 175 170 171 181 184 182 188 193 194 207 220 227 230 234 236 242 253 263 268 271 264 262 271 281 287 290 289
191 191 187 184 176 168 168 164 161 165 173 176 176 174 173 177 173 173 184 189 185 191 197 202 204 211 224 232 235 238 239 242 252 255 257 263 267 266 273 272 273 278 283
177 177 175 169 162 161 159 154 160 164 172 180 181 180 178 176 177 187 193 191 189 197 201 201 202 212 226 232 236 238 225 245 255 256 255 255 258 268 277 280 279 285 286
146 150 149 144 152 155 148 153 163 168 182 186 184 180 178 181 188 195 193 186 191 200 198 209 204 211 220 231 238 238 223 240 252 256 258 256 259 265 273 275 276 285 293
132 136 139 145 152 147 147 157 166 185 188 174 169 173 181 187 190 186 181 181 185 188 199 213 215 215 218 233 240 240 224 226 242 248 252 255 266 272 278 286 286 290 302
133 136 136 138 140 145 151 162 183 185 161 159 167 176 180 180 177 176 178 176 177 188 202 214 231 228 224 226 239 242 241 236 229 239 249 256 268 273 282 295 297 302 315
143 139 137 135 141 155 161 172 183 157 152 159 170 173 169 170 169 174 176 171 177 193 206 211 229 233 220 228 235 241 243 246 242 240 250 258 265 275 289 294 296 307 305
147 139 138 145 159 172 180 176 155 150 154 165 170 165 167 172 170 174 176 181 190 199 208 213 224 227 216 208 216 226 241 249 255 261 260 266 270 273 280 283 288 281 271
146 149 157 168 177 174 182 170 152 150 160 167 168 168 173 175 180 190 198 196 202 199 204 213 211 213 227 225 223 219 220 221 232 237 223 209 222 239 248 253 254 260 267
151 158 171 180 181 173 178 167 161 160 162 170 175 176 175 177 178 184 216 236 227 232 238 234 227 232 244 254 249 248 247 246 246 237 212 214 219 231 238 245 256 259 262